• Join FlightAware (Why Join?)
  • Login
  • US Flag GB Flag 
08:13 EST


 

Airport Tracker/Info


-or-


 

Live Flight TrackerFlight Track Log ✈ AWE3794 ✈ 11-Apr-2013 ✈ KPHL - KCLE

Flight Track Log - Related Links

Times and Time Zones

All times are in EDT time to prevent confusion due to time zone crossing. See the AWE3794 flight status page for this flight to view local times or setup timezone preferences in your user account.

Time Position Orientation Groundspeed Altitude Reporting Facility
EDT Latitude Longitude Course Direction KTS MPH feet Rate Location/Type
08:03 39.8592 -75.2886 311° West 171 197 1,100  Level FAA TRACON SMA TRACON (SMA)
08:04 39.8558 -75.3067 256° West 160 184 1,700 1,500 Climbing FAA TRACON SMA TRACON (SMA)
08:04 39.8483 -75.3319 249° West 199 229 2,100 1,800 Climbing FAA TRACON SMA TRACON (SMA)
08:04 39.8428 -75.3547 252° West 214 246 2,900 2,400 Climbing FAA TRACON SMA TRACON (SMA)
08:05 39.8378 -75.3761 253° West 213 245 3,700 1,953 Climbing FAA TRACON SMA TRACON (SMA)
08:05 39.8394 -75.4061 274° West 224 258 4,300 1,535 Climbing FAA TRACON SMA TRACON (SMA)
08:05 39.8594 -75.4289 319° Northwest 254 292 4,800 1,421 Climbing FAA TRACON SMA TRACON (SMA)
08:06 40.0991 -75.4490 323° Northwest  Level FlightAware Approximate
08:06 39.8767 -75.4342 347° North 270 311 5,200  Level FAA TRACON SMA TRACON (SMA)
08:06 39.9058 -75.4428 347° North 278 320 6,200 2,769 Climbing FAA TRACON SMA TRACON (SMA)
08:06 39.9292 -75.4503 346° North 274 315 7,000 2,400 Climbing FAA TRACON SMA TRACON (SMA)
08:07 40.1780 -75.5279 323° Northwest  Level FlightAware Approximate
08:07 39.9517 -75.4586 344° North 276 318 7,800  Level FAA TRACON SMA TRACON (SMA)
08:07 39.9806 -75.4689 345° North 278 320 8,800 2,850 Climbing FAA TRACON SMA TRACON (SMA)
08:07 40.0031 -75.4772 344° North 276 318 9,700 2,250 Climbing FAA TRACON SMA TRACON (SMA)
08:08 40.2529 -75.6042 311° West  Level FlightAware Approximate
08:08 40.0253 -75.4858 343° North 273 314 10,300  Level FAA TRACON SMA TRACON (SMA)
08:08 40.0539 -75.4961 345° North 277 319 11,000 1,950 Climbing FAA TRACON SMA TRACON (SMA)
08:08 40.0783 -75.5064 342° North 286 329 11,600 1,317 Climbing FAA TRACON SMA TRACON (SMA)
08:09 40.1031 -75.5158 344° North 297 342 11,900 1,050 Climbing FAA TRACON SMA TRACON (SMA)
08:09 40.1358 -75.5281 344° North 313 360 12,300 1,077 Climbing FAA TRACON SMA TRACON (SMA)
08:09 40.1628 -75.5386 343° North 325 374 12,600 600 Climbing FAA TRACON SMA TRACON (SMA)
08:10 40.1908 -75.5492 344° North 336 387 12,700 750 Climbing FAA TRACON SMA TRACON (SMA)
08:10 40.2236 -75.5686 336° Northwest 341 392 13,100 1,317 Climbing FAA TRACON SMA TRACON (SMA)
08:10 40.2447 -75.5953 316° Northwest 330 380 13,600 1,171 Climbing FAA TRACON SMA TRACON (SMA)
08:11 40.2633 -75.6219 312° West 330 380 13,900 1,500 Climbing FAA TRACON SMA TRACON (SMA)
08:11 40.2867 -75.6581 310° West 331 381 14,600 1,500 Climbing FAA TRACON SMA TRACON (SMA)
08:11 40.3050 -75.6861 311° West 331 381 14,900 1,050 Climbing FAA TRACON SMA TRACON (SMA)
08:12 40.3233 -75.7119 313° West 333 383 15,300 1,350 Climbing FAA TRACON SMA TRACON (SMA)
08:12 40.3447 -75.7442 311° West 336 387 15,800 1,650 Climbing FAA TRACON SMA TRACON (SMA)
08:12 40.3658 -75.7783 309° West 337 388 16,400 1,200 Climbing FAA TRACON SMA TRACON (SMA)
08:13 40.3711 -75.7856 314° West 337 388 16,600 1,091 Climbing FAA TRACON SMA TRACON (SMA)
08:13 40.4225 -75.8636 311° West 335 386 17,400 1,326 Climbing New York Center
08:14 40.4550 -75.9781 290° West 339 390 18,700 1,068 Climbing New York Center
08:15 40.4711 -76.0883 281° West 339 390 19,500 800 Climbing New York Center
08:16 40.4903 -76.2125 282° West 345 397 20,300 780 Climbing New York Center
08:17 40.5094 -76.3397 281° West 350 403 21,100 756 Climbing New York Center
08:18 40.5303 -76.4697 282° West 360 414 21,800 756 Climbing New York Center
08:19 40.5531 -76.6000 283° West 360 414 22,600 836 Climbing New York Center
08:20 40.5864 -76.7286 289° West 366 421 23,500 756 Climbing New York Center
08:21 40.6194 -76.8547 289° West 371 427 24,100 610 Climbing New York Center
08:22 40.6542 -76.9889 289° West 378 435 24,700 545 Climbing New York Center
08:23 40.6911 -77.1211 290° West 383 441 25,200 545 Climbing New York Center
08:24 40.7253 -77.2583 288° West 388 447 25,800 1,050 Climbing New York Center
08:25 40.7600 -77.3850 290° West 388 447 27,300 1,091 Climbing New York Center
08:26 40.7922 -77.5142 288° West 378 435 28,000 796 Climbing New York Center
08:28 40.8697 -77.8181 289° West 364 419 29,900 615 Climbing Cleveland Center
08:29 40.9019 -77.9486 288° West 364 419 30,000 50 Climbing Cleveland Center
08:30 40.9300 -78.0819 286° West 364 419 30,000  Level Cleveland Center
08:31 40.9536 -78.2186 283° West 377 434 30,000  Level Cleveland Center
08:32 40.9772 -78.3525 283° West 383 441 30,000  Level Cleveland Center
08:33 41.0008 -78.4894 283° West 383 441 30,000  Level Cleveland Center
08:34 41.0194 -78.6097 282° West 383 441 30,000  Level Cleveland Center
08:35 41.0406 -78.7442 282° West 383 441 30,000  Level Cleveland Center
08:36 41.0633 -78.8783 283° West 378 435 30,000  Level Cleveland Center
08:37 41.0842 -79.0103 282° West 373 429 30,000  Level Cleveland Center
08:38 41.1044 -79.1392 282° West 373 429 30,000  Level Cleveland Center
08:39 41.1250 -79.2847 281° West 373 429 30,000 -450 Level Cleveland Center
08:40 41.1431 -79.4058 281° West 367 422 29,100 -1,200 Descending Cleveland Center
08:41 41.1653 -79.5489 282° West 383 441 27,600 -1,600 Descending Cleveland Center
08:42 41.1875 -79.7086 281° West 397 457 25,900 -1,600 Descending Cleveland Center
08:43 41.2092 -79.8489 282° West 397 457 24,400 -950 Descending Cleveland Center
08:44 41.2308 -79.9867 282° West 397 457 24,000 -200 Descending Cleveland Center
08:45 41.2503 -80.1108 282° West 382 440 24,000 -50 Level Cleveland Center
08:46 41.2717 -80.2461 282° West 382 440 23,900 -1,100 Descending Cleveland Center
08:47 41.2992 -80.4008 283° West 387 445 21,800 -2,100 Descending Cleveland Center
08:48 41.3367 -80.5278 292° West 381 438 19,700 -2,150 Descending Cleveland Center
08:49 41.3722 -80.6467 292° West 361 415 17,500 -2,150 Descending Cleveland Center
08:50 41.4053 -80.7658 290° West 353 406 15,400 -1,933 Descending Cleveland Center
08:51 41.4178 -80.8183 288° West 335 386 14,600 -1,800 Descending Cleveland Center
08:51 41.4364 -80.8767 293° West 338 389 13,600 -1,867 Descending Cleveland Center
08:52 41.4653 -80.9878 289° West 323 372 11,800 -1,547 Descending Cleveland Center
08:54 41.4939 -81.1069 288° West 296 341 10,300 -950 Descending Cleveland Center
08:54 41.4978 -81.1958 273° West 296 341 9,900 -214 Descending Cleveland Center
08:55 41.4908 -81.3067 265° West 291 335 9,900  Level Cleveland Center
08:56 41.4797 -81.4119 262° West 291 335 9,900 50 Level Cleveland Center
08:57 41.4664 -81.5169 260° West 284 327 10,000 -350 Climbing Cleveland Center
08:58 41.4467 -81.6081 254° West 281 323 9,200 -1,289 Descending Cleveland Center
08:59 41.4083 -81.6878 237° Southwest 257 296 7,400 -1,150 Descending Cleveland Center
09:00 41.3600 -81.7533 226° Southwest 257 296 6,900 -179 Descending Cleveland Center
09:02 41.2986 -81.8325 224° Southwest 236 272 7,000 45 Climbing Cleveland Center
09:03 41.2561 -81.8922 227° Southwest 211 243 7,000 -198 Level Cleveland Center
09:04 41.2200 -81.9522 231° Southwest 217 250 6,600 -764 Descending Cleveland Center
09:05 41.2153 -82.0047 263° West 202 232 5,600 -1,525 Descending Cleveland Center
09:06 41.2750 -82.0639 323° Northwest 219 252 3,500 -1,173 Descending Cleveland Center
09:07 41.3153 -82.0097 45° Northeast 249 287 3,000 -500 Descending Cleveland Center